Content
SEND FEEDBACK

Daily
Averages
Monthly
Summary
Brazil

CUIABA, MATO GROSSO


Home > South America > Brazil > Mato Grosso
Elevation: 623 feet     Latitude: 15 38S     Longitude: 056 06W

WEATHER
 
SELECT A DAY
Number of Records: 172,534;   Date Range: 6/30/96 - 12/23/14
 
SHARE

PRINT THIS DATA

[ ← Previous Day ]
WEATHER ALMANAC - JANUARY 2, 2013
[ Next Day → ]
[ °C ]   °F
Weather ElementAverageHighLow
Temperature80.4 °F89.6 °F (3:00 pm)75 °F (3:00 am)
Dewpoint70.6 °F72 °F (3:00 am)68 °F (10:00 am)
Humidity72.5 %89 % (1:00 am)48 % (3:00 pm)
Barometer29.88 in29.95 in (8:00 am)29.77 in (5:00 pm)
Wind Speed6 mph16.1 mph (8:00 pm)
Weather ElementAverage
Visibility7 mi
Wind DirectionSE (138.2 °)

Weather ElementTotal
Precipitation---
Cooling Degree Days17.3 (Base 65)
Growing Degree Days32.3 (Base 50)
Averaged from 29 records on January 2, 2013
WEATHER CONDITIONS BREAKOUT
WIND DIRECTION BREAKOUT
WEATHER BY HOUR - JANUARY 2, 2013
[ °C ]   °F
Local TimeTemperatureDewpointHumidityBarometerVisibilityWind DirectionWind SpeedGust SpeedPrecipitationEventsConditions
1:00 AM75.2 °F71.6 °F89 %29.89 in6.2 miCalmMostly Cloudy
2:00 AM75.2 °F71.6 °F89 %29.89 in6.2 miCalmMostly Cloudy
3:00 AM75.0 °F72.0 °F86 %29.86 in12.0 miCalmPartly Cloudy
3:00 AM75.2 °F71.6 °F89 %29.89 in6.2 miCalmMostly Cloudy
4:00 AM75.2 °F71.6 °F89 %29.86 in6.2 miCalmMostly Cloudy
5:00 AM75.2 °F71.6 °F89 %29.89 in6.2 miCalmMostly Cloudy
6:00 AM75.2 °F71.6 °F89 %29.89 in6.2 miSouth (190°)5.8 mphMostly Cloudy
6:48 AM75.2 °F71.6 °F89 %29.92 in6.2 miSouth (180°)5.8 mphMostly Cloudy
7:00 AM75.2 °F71.6 °F89 %29.92 in6.2 miSouth (180°)4.6 mphMostly Cloudy
8:00 AM75.2 °F71.6 °F89 %29.95 in6.2 miSouth (190°)5.8 mphMostly Cloudy
9:00 AM77.0 °F71.0 °F75 %29.94 in12.0 miSSW (210°)8.1 mphMostly Cloudy
9:00 AM77.0 °F69.8 °F78 %29.95 in6.2 miSSW (210°)8.1 mphMostly Cloudy
9:14 AM77.0 °F69.8 °F78 %29.95 in6.2 miSouth (180°)8.1 mphMostly Cloudy
10:00 AM78.8 °F68.0 °F69 %29.95 in6.2 miSouth (190°)6.9 mphMostly Cloudy
11:00 AM80.6 °F69.8 °F70 %29.95 in6.2 miCalmScattered Clouds
12:00 PM82.4 °F69.8 °F66 %29.92 in6.2 miSSE (160°)5.8 mphScattered Clouds
1:00 PM86.0 °F69.8 °F58 %29.89 in6.2 miCalmScattered Clouds
2:00 PM87.8 °F69.8 °F55 %29.86 in6.2 miSSE (160°)9.2 mphScattered Clouds
3:00 PM89.0 °F72.0 °F48 %29.82 in12.0 miSSE (160°)9.2 mphPartly Cloudy
3:00 PM89.6 °F71.6 °F55 %29.83 in6.2 miSSE (160°)9.2 mphScattered Clouds
4:00 PM87.8 °F69.8 °F55 %29.80 in6.2 miSSE (160°)6.9 mphScattered Clouds
5:00 PM89.6 °F71.6 °F55 %29.77 in6.2 miSSW (200°)11.5 mphScattered Clouds
6:00 PM87.8 °F69.8 °F55 %29.77 in6.2 miSouth (170°)11.5 mphScattered Clouds
7:00 PM86.0 °F69.8 °F58 %29.80 in6.2 miSouth (170°)2.3 mphScattered Clouds
8:00 PM84.2 °F71.6 °F66 %29.83 in6.2 miSSW (200°)16.1 mphScattered Clouds
9:00 PM81.0 °F69.0 °F58 %29.85 in12.0 miSSW (200°)9.2 mphPartly Cloudy
9:00 PM80.6 °F68.0 °F65 %29.86 in6.2 miSSW (200°)9.2 mphScattered Clouds
10:00 PM78.8 °F69.8 °F74 %29.89 in6.2 miSSW (200°)11.5 mphScattered Clouds
11:00 PM78.8 °F71.6 °F78 %29.92 in6.2 miSSW (200°)8.1 mphPartly Cloudy
Hourly data recorded from SBCY, located miles away from Cuiaba, Mato Grosso







STORIES FROM OUR PARTNERS